Regional Weather Roundup
Issued by NWS

Home | Current Version | Previous Version | Graphics & Text | Print | Product List | Glossary On
Versions: 1 2 3 4 5 6 7 8 9 10 11 12 13 14 15 16 17 18 19 20 21 22 23 24 25 26 27 28 29 30 31 32 33 34 35 36 37 38 39 40 41 42 43 44 45 46 47 48 49 50
000
ASUS43 KOAX 251110
RWRNE

WEATHER ROUNDUP FOR NEBRASKA
NATIONAL WEATHER SERVICE OMAHA NE
600 AM CDT FRI JUL 25 2014

NOTES: SATELLITE DATA IS BEING USED TO AUGMENT CLOUD COVER ABOVE
       12000 FEET.
       "FAIR" INDICATES FEW OR NO CLOUDS BELOW 12,000 FEET WITH NO
       SIGNIFICANT WEATHER AND/OR OBSTRUCTIONS TO VISIBILITY.

  * THESE STATIONS DO NOT REPORT WEATHER SUCH AS RAIN...SNOW OR FOG.

NEZ001>004-019>022-054>056-251200-
NEBRASKA PANHANDLE

CITY           SKY/WX    TMP DP  RH WIND       PRES   REMARKS
SCOTTSBLUFF    CLEAR     66  53  63 W9        29.98R
ALLIANCE       CLEAR     67  53  61 NW13      29.94R
CHADRON        CLEAR     67  59  75 NW7       29.96R
KIMBALL        CLEAR     66  53  61 NW9       30.01R
SIDNEY         CLEAR     70  53  54 W14       29.96S
$$

NEZ057>060-069>072-079>082-251200-
SOUTHWEST NEBRASKA

CITY           SKY/WX    TMP DP  RH WIND       PRES   REMARKS
NORTH PLATTE   CLEAR     62  58  86 SW3       29.81R
IMPERIAL       CLEAR     65  57  75 SW5       29.86F
LEXINGTON      CLEAR     70  64  81 SW7       29.79R
MCCOOK         PTCLDY    67  57  70 N6        29.83R
OGALLALA       CLEAR     58  56  93 W3        29.85S
$$

NEZ005>010-023>029-035>040-094-251200-
NORTH CENTRAL NEBRASKA

CITY           SKY/WX    TMP DP  RH WIND       PRES   REMARKS
VALENTINE      PTCLDY    68  59  73 W7        29.77R
AINSWORTH      PTCLDY    69  62  78 W10       29.75S
BROKEN BOW     CLEAR     73  68  84 W9        29.76S
O`NEILL        CLEAR     71  66  85 S7        29.73R
ORD            CLEAR     67  66  97 E3        29.73R FOG
THEDFORD       CLEAR     71  58  63 W8        29.80R
$$

NEZ041-046>049-061>064-073>077-083>087-251200-
SOUTH CENTRAL NEBRASKA

CITY           SKY/WX    TMP DP  RH WIND       PRES   REMARKS
GRAND ISLAND   CLEAR     80  68  66 SW21G32   29.74S
AURORA         PTCLDY    77  72  83 S12       29.75S
HASTINGS       PTCLDY    78  66  66 S14G24    29.75F
HEBRON         PTCLDY    77  67  72 S15       29.78F
HOLDREGE       CLEAR     76  61  58 SW13      29.79S
KEARNEY *      CLEAR     75  66  73 S12G20    29.77R
YORK           CLEAR     73  72  94 S10       29.75S
$$

NEZ011>018-030>034-042>045-251200-
NORTHEAST NEBRASKA

CITY           SKY/WX    TMP DP  RH WIND       PRES   REMARKS
NORFOLK        CLEAR     73  67  81 S10       29.72R
ALBION         CLEAR     70  66  88 SE3       29.73S
BLAIR          MOCLDY    74  65  74 S18G24    29.76S
COLUMBUS *     CLEAR     73  66  78 S12       29.72F
FREMONT        CLEAR     74  67  77 SE10      29.75R
TEKAMAH        MOCLDY    78  68  71 S14       29.75R
WAYNE          CLEAR     74  69  86 S3        29.75R
$$

NEZ050>053-065>068-078-088>093-251200-
SOUTHEAST NEBRASKA

CITY           SKY/WX    TMP DP  RH WIND       PRES   REMARKS
LINCOLN        CLEAR     73  67  81 S10       29.75F
OMAHA EPPLEY   MOCLDY    77  65  66 SE13      29.77R
BEATRICE       PTCLDY    74  70  87 S10       29.77F
FALLS CITY     CLOUDY    70  63  78 SE7       29.83R
NEBRASKA CITY  MOCLDY    70  62  75 S12       29.80S
PLATTSMOUTH    MOCLDY    71  63  74 S10G17    29.78R
$$

NEZ044-045-051>053-067-251200-
OMAHA AREA

CITY           SKY/WX    TMP DP  RH WIND       PRES   REMARKS
OMAHA EPPLEY   MOCLDY    77  65  66 SE13      29.77R
BLAIR          MOCLDY    74  65  74 S18G24    29.76S
FREMONT        CLEAR     74  67  77 SE10      29.75R
MILLARD        PTCLDY    74  67  78 SE9       29.76S
OFFUTT AFB     MOCLDY    71  69  93 SE8       29.77R
PLATTSMOUTH    MOCLDY    71  63  74 S10G17    29.78R
WAHOO          FAIR      72  67  84 S8        29.75R
$$


USA.gov is the U.S. government's official web portal to all federal, state and local government web resources and services.